This demonstration page uses our WeatherBlox Daily Observations layout. Learn more.

Left ArrowRight Arrow

39.08367, -84.50855

Hourly Observations for March 24, 2020

Temp ( °F °C ) Dew Point ( °F °C ) Humidity (%) Winds ( mph kmh ) Pressure ( in mb ) Visibility ( mi km ) Precip ( " mm )
12:53 am 00:53 Clear 40 4.4 36 2.2 86 86 N N/A 30.19 1022 9 14 N/A
1:53 am 01:53 Clear with Mist and Fog 36 2.2 35 1.7 97 97 N N/A 30.19 1022 6 10 N/A
2:53 am 02:53 Clear with Mist and Fog 37 2.8 35 1.7 93 93 N N/A 30.18 1022 5 8 N/A
3:53 am 03:53 Clear with Mist and Fog 36 2.2 35 1.7 97 97 N N/A 30.19 1022 4 6 N/A
4:37 am 04:37 Clear with Mist and Fog 35 1.7 34 1.1 96 96 N N/A 30.20 1023 2 3 N/A
4:49 am 04:49 Clear with Mist and Fog 36 2 36 2 100 100 N N/A 30.20 1023 1 1 N/A
4:53 am 04:53 Clear with Mist and Fog 35 1.7 35 1.7 100 100 N N/A 30.18 1022 2 2 N/A
4:59 am 04:59 Clear with Mist and Fog 36 2.2 35 1.7 97 97 N N/A 30.19 1022 3 5 N/A
5:53 am 05:53 Clear with Mist and Fog 34 1.1 33 0.6 97 97 NE 6 9 30.15 1021 5 8 N/A
6:53 am 06:53 Partly Cloudy with Mist and Fog 36 2.2 34 1.1 93 93 N N/A 30.18 1022 6 10 N/A
7:53 am 07:53 Cloudy with Mist and Fog 37 2.8 36 2.2 96 96 N 3 6 30.18 1022 6 10 N/A
8:53 am 08:53 Cloudy 40 4.4 37 2.8 89 89 ENE 5 7 30.17 1022 7 11 N/A
9:53 am 09:53 Cloudy 43 6.1 38 3.3 82 82 NE 5 7 30.14 1021 10 16 N/A
10:53 am 10:53 Mostly Cloudy 47 8.3 39 3.9 74 74 E 10 17 30.11 1020 10 16 N/A
11:53 am 11:53 Mostly Cloudy 51 10.6 40 4.4 66 66 VRB 5 7 30.11 1020 10 16 N/A
12:53 pm 12:53 Sunny 52 11.1 40 4.4 64 64 E 8 13 30.06 1018 10 16 N/A
1:53 pm 13:53 Mostly Sunny 55 12.8 42 5.6 62 62 E 8 13 30.04 1017 10 16 N/A
2:53 pm 14:53 Sunny 54 12.2 40 4.4 59 59 NE 7 11 30.00 1016 10 16 N/A
3:53 pm 15:53 Sunny 54 12.2 40 4.4 59 59 E 7 11 29.96 1015 10 16 N/A
4:53 pm 16:53 Cloudy 53 11.7 41 5 64 64 NE 12 19 29.96 1015 10 16 N/A
5:53 pm 17:53 Cloudy 53 11.7 41 5 64 64 NE 8 13 29.95 1014 10 16 N/A
6:53 pm 18:53 Cloudy with Light Rain 50 10 44 6.7 80 80 NNE 9 15 29.91 1013 9 14 0.02 0.51
7:53 pm 19:53 Cloudy with Light Rain 50 10 43 6.1 77 77 NNE 8 13 29.93 1014 7 11 0.01 0.25
8:53 pm 20:53 Cloudy with Light Rain 48 8.9 43 6.1 83 83 NNE 9 15 29.93 1014 8 13 0.04 1.02
9:53 pm 21:53 Cloudy with Light Rain 47 8.3 42 5.6 83 83 NNE 10 17 29.92 1013 10 16 0.01 0.25
10:53 pm 22:53 Cloudy 46 7.8 40 4.4 79 79 NNE 10 17 29.91 1013 10 16 0.00 0.00
11:53 pm 23:53 Cloudy with Light Rain 45 7.2 41 5 86 86 NNE 6 9 29.91 1013 9 14 0.01 0.25

Powered by AerisWeather